Time,TemperatureF,DewpointF,PressureIn,WindDirection,WindDirectionDegrees,WindSpeedMPH,WindSpeedGustMPH,Humidity,HourlyPrecipIn,Conditions,Clouds,dailyrainin,SoftwareType,DateUTC
2013-04-01 00:02:00,55.6,54.8,29.88,NE,45,0.0,8.0,97,0.00,,,0.00,Wunderground v.1.15,2013-04-01 04:02:00,
2013-04-01 00:07:00,55.6,54.8,29.88,NE,34,1.0,8.0,97,0.00,,,0.00,Wunderground v.1.15,2013-04-01 04:07:00,
2013-04-01 00:12:00,55.6,54.8,29.88,NE,37,2.0,8.0,97,0.00,,,0.00,Wunderground v.1.15,2013-04-01 04:12:00,
2013-04-01 00:17:00,55.4,54.6,29.88,NE,37,2.0,8.0,97,0.00,,,0.00,Wunderground v.1.15,2013-04-01 04:17:00,
2013-04-01 00:22:00,54.9,54.1,29.88,NE,37,2.0,8.0,97,0.00,,,0.00,Wunderground v.1.15,2013-04-01 04:22:00,
2013-04-01 00:27:00,54.7,53.9,29.88,NE,37,1.0,8.0,97,0.00,,,0.00,Wunderground v.1.15,2013-04-01 04:27:00,
2013-04-01 00:37:00,54.6,54.0,29.88,NE,37,1.0,8.0,98,0.00,,,0.00,Wunderground v.1.15,2013-04-01 04:37:00,
2013-04-01 00:42:00,54.4,53.8,29.89,NE,37,1.0,8.0,98,0.00,,,0.00,Wunderground v.1.15,2013-04-01 04:42:00,
2013-04-01 00:47:00,54.3,53.7,29.89,NE,37,1.0,1.0,98,0.00,,,0.00,Wunderground v.1.15,2013-04-01 04:47:00,
2013-04-01 00:52:00,53.7,52.9,29.89,NE,37,0.0,8.0,97,0.00,,,0.00,Wunderground v.1.15,2013-04-01 04:52:00,
2013-04-01 01:02:00,52.9,52.1,29.89,NE,37,0.0,8.0,97,0.00,,,0.00,Wunderground v.1.15,2013-04-01 05:02:00,
2013-04-01 01:07:00,52.9,52.4,29.89,ENE,57,0.0,8.0,98,0.00,,,0.00,Wunderground v.1.15,2013-04-01 05:07:00,
2013-04-01 01:12:00,52.7,52.2,29.89,ENE,57,0.0,8.0,98,0.00,,,0.00,Wunderground v.1.15,2013-04-01 05:12:00,
2013-04-01 01:22:00,51.7,51.2,29.89,ENE,57,0.0,8.0,98,0.00,,,0.00,Wunderground v.1.15,2013-04-01 05:22:00,
2013-04-01 01:27:00,51.6,51.1,29.89,ENE,57,0.0,8.0,98,0.00,,,0.00,Wunderground v.1.15,2013-04-01 05:27:00,
2013-04-01 01:32:00,52.0,51.5,29.89,ENE,77,0.0,8.0,98,0.00,,,0.00,Wunderground v.1.15,2013-04-01 05:32:00,
2013-04-01 01:37:00,52.3,52.0,29.89,ENE,77,0.0,8.0,99,0.00,,,0.00,Wunderground v.1.15,2013-04-01 05:37:00,
2013-04-01 01:42:00,52.4,52.1,29.89,East,89,0.0,8.0,99,0.00,,,0.00,Wunderground v.1.15,2013-04-01 05:42:00,
2013-04-01 01:52:00,52.3,51.8,29.89,ENE,60,1.0,8.0,98,0.00,,,0.00,Wunderground v.1.15,2013-04-01 05:52:00,
2013-04-01 01:57:00,52.0,51.5,29.89,ENE,59,0.0,8.0,98,0.00,,,0.00,Wunderground v.1.15,2013-04-01 05:57:00,
2013-04-01 02:02:00,51.8,51.3,29.89,ENE,75,0.0,8.0,98,0.00,,,0.00,Wunderground v.1.15,2013-04-01 06:02:00,
2013-04-01 02:07:00,51.7,51.2,29.89,ENE,75,1.0,1.0,98,0.00,,,0.00,Wunderground v.1.15,2013-04-01 06:07:00,
2013-04-01 02:17:00,51.7,51.4,29.89,NE,49,1.0,8.0,99,0.00,,,0.00,Wunderground v.1.15,2013-04-01 06:17:00,
2013-04-01 02:22:00,51.7,51.4,29.89,NE,49,1.0,8.0,99,0.00,,,0.00,Wunderground v.1.15,2013-04-01 06:22:00,
2013-04-01 02:32:00,51.3,50.8,29.89,NE,50,0.0,8.0,98,0.00,,,0.00,Wunderground v.1.15,2013-04-01 06:32:00,
2013-04-01 02:37:00,50.7,50.2,29.89,NE,49,0.0,8.0,98,0.00,,,0.00,Wunderground v.1.15,2013-04-01 06:37:00,
2013-04-01 02:42:00,50.1,49.6,29.89,NW,319,0.0,8.0,98,0.00,,,0.00,Wunderground v.1.15,2013-04-01 06:42:00,
2013-04-01 02:52:00,49.6,49.1,29.88,NW,319,0.0,8.0,98,0.00,,,0.00,Wunderground v.1.15,2013-04-01 06:52:00,
2013-04-01 02:57:00,49.1,48.6,29.88,NW,319,0.0,8.0,98,0.00,,,0.00,Wunderground v.1.15,2013-04-01 06:57:00,
2013-04-01 03:02:00,48.7,48.2,29.88,NW,319,0.0,8.0,98,0.00,,,0.00,Wunderground v.1.15,2013-04-01 07:02:00,
2013-04-01 03:07:00,48.2,47.7,29.88,NW,319,0.0,8.0,98,0.00,,,0.00,Wunderground v.1.15,2013-04-01 07:07:00,
2013-04-01 03:12:00,47.7,47.2,29.88,WNW,293,0.0,8.0,98,0.00,,,0.00,Wunderground v.1.15,2013-04-01 07:12:00,
2013-04-01 03:22:00,47.3,47.0,29.88,NE,54,1.0,8.0,99,0.00,,,0.00,Wunderground v.1.15,2013-04-01 07:22:00,
2013-04-01 03:27:00,47.8,47.5,29.88,ENE,72,1.0,1.0,99,0.00,,,0.00,Wunderground v.1.15,2013-04-01 07:27:00,
2013-04-01 03:32:00,47.7,47.4,29.88,ENE,72,0.0,8.0,99,0.00,,,0.00,Wunderground v.1.15,2013-04-01 07:32:00,
2013-04-01 03:37:00,46.7,46.2,29.88,WSW,249,1.0,8.0,98,0.00,,,0.00,Wunderground v.1.15,2013-04-01 07:37:00,
2013-04-01 03:42:00,46.2,45.9,29.88,WSW,249,1.0,8.0,99,0.00,,,0.00,Wunderground v.1.15,2013-04-01 07:42:00,
2013-04-01 03:47:00,45.5,45.0,29.88,WSW,249,1.0,8.0,98,0.00,,,0.00,Wunderground v.1.15,2013-04-01 07:47:00,
2013-04-01 03:57:00,45.5,45.2,29.88,WSW,249,0.0,8.0,99,0.00,,,0.00,Wunderground v.1.15,2013-04-01 07:57:00,
2013-04-01 04:07:00,45.3,45.0,29.88,WSW,249,0.0,8.0,99,0.00,,,0.00,Wunderground v.1.15,2013-04-01 08:07:00,
2013-04-01 04:12:00,45.6,45.3,29.88,WSW,249,0.0,8.0,99,0.00,,,0.00,Wunderground v.1.15,2013-04-01 08:12:00,
2013-04-01 04:17:00,45.9,45.9,29.88,WSW,249,0.0,8.0,100,0.00,,,0.00,Wunderground v.1.15,2013-04-01 08:17:00,
2013-04-01 04:22:00,45.9,45.9,29.88,WSW,249,0.0,8.0,100,0.00,,,0.00,Wunderground v.1.15,2013-04-01 08:22:00,
2013-04-01 04:32:00,45.5,45.2,29.88,WSW,249,0.0,8.0,99,0.00,,,0.00,Wunderground v.1.15,2013-04-01 08:32:00,
2013-04-01 04:37:00,45.6,45.6,29.88,NE,39,1.0,8.0,100,0.00,,,0.00,Wunderground v.1.15,2013-04-01 08:37:00,
2013-04-01 04:42:00,45.6,45.6,29.88,NE,39,1.0,8.0,100,0.00,,,0.00,Wunderground v.1.15,2013-04-01 08:42:00,
2013-04-01 04:47:00,45.5,45.2,29.88,NE,39,1.0,1.0,99,0.00,,,0.00,Wunderground v.1.15,2013-04-01 08:47:00,
2013-04-01 04:52:00,44.9,44.6,29.88,NE,38,0.0,8.0,99,0.00,,,0.00,Wunderground v.1.15,2013-04-01 08:52:00,
2013-04-01 04:57:00,44.2,43.9,29.88,NE,39,0.0,8.0,99,0.00,,,0.00,Wunderground v.1.15,2013-04-01 08:57:00,
2013-04-01 05:07:00,43.6,43.3,29.88,NE,39,0.0,8.0,99,0.00,,,0.00,Wunderground v.1.15,2013-04-01 09:07:00,
2013-04-01 05:12:00,43.5,43.2,29.88,NE,39,0.0,8.0,99,0.00,,,0.00,Wunderground v.1.15,2013-04-01 09:12:00,
2013-04-01 05:17:00,43.6,43.3,29.89,NE,39,0.0,8.0,99,0.00,,,0.00,Wunderground v.1.15,2013-04-01 09:17:00,
2013-04-01 05:27:00,43.9,43.6,29.89,NE,39,0.0,8.0,99,0.00,,,0.00,Wunderground v.1.15,2013-04-01 09:27:00,
2013-04-01 05:32:00,43.9,43.9,29.89,NE,38,0.0,8.0,100,0.00,,,0.00,Wunderground v.1.15,2013-04-01 09:32:00,
2013-04-01 05:37:00,43.8,43.8,29.89,NE,38,0.0,8.0,100,0.00,,,0.00,Wunderground v.1.15,2013-04-01 09:37:00,
2013-04-01 05:42:00,43.3,43.0,29.89,NE,34,0.0,8.0,99,0.00,,,0.00,Wunderground v.1.15,2013-04-01 09:42:00,
2013-04-01 05:47:00,43.1,42.8,29.89,NE,34,0.0,8.0,99,0.00,,,0.00,Wunderground v.1.15,2013-04-01 09:47:00,
2013-04-01 05:57:00,42.9,42.6,29.90,NE,34,0.0,0.0,99,0.00,,,0.00,Wunderground v.1.15,2013-04-01 09:57:00,
2013-04-01 06:07:00,42.6,42.3,29.90,NE,34,0.0,0.0,99,0.00,,,0.00,Wunderground v.1.15,2013-04-01 10:07:00,
2013-04-01 06:12:00,42.4,42.1,29.90,NE,34,0.0,0.0,99,0.00,,,0.00,Wunderground v.1.15,2013-04-01 10:12:00,
2013-04-01 06:17:00,42.2,41.9,29.90,NE,34,0.0,0.0,99,0.00,,,0.00,Wunderground v.1.15,2013-04-01 10:17:00,
2013-04-01 06:22:00,42.0,41.7,29.91,NE,34,0.0,0.0,99,0.00,,,0.00,Wunderground v.1.15,2013-04-01 10:22:00,
2013-04-01 06:27:00,41.8,41.5,29.91,NE,34,0.0,0.0,99,0.00,,,0.00,Wunderground v.1.15,2013-04-01 10:27:00,
2013-04-01 06:32:00,41.6,41.3,29.91,NE,34,0.0,0.0,99,0.00,,,0.00,Wunderground v.1.15,2013-04-01 10:32:00,
2013-04-01 06:42:00,40.9,40.6,29.92,NE,34,0.0,0.0,99,0.00,,,0.00,Wunderground v.1.15,2013-04-01 10:42:00,
2013-04-01 06:47:00,40.5,40.2,29.92,NE,34,0.0,1.0,99,0.00,,,0.00,Wunderground v.1.15,2013-04-01 10:47:00,
2013-04-01 06:52:00,40.1,39.8,29.92,NE,34,0.0,1.0,99,0.00,,,0.00,Wunderground v.1.15,2013-04-01 10:52:00,
2013-04-01 06:57:00,39.9,39.6,29.93,NE,34,0.0,1.0,99,0.00,,,0.00,Wunderground v.1.15,2013-04-01 10:57:00,
2013-04-01 07:02:00,39.7,39.4,29.93,NE,34,0.0,1.0,99,0.00,,,0.00,Wunderground v.1.15,2013-04-01 11:02:00,
2013-04-01 07:07:00,39.8,39.8,29.93,NE,34,0.0,1.0,100,0.00,,,0.00,Wunderground v.1.15,2013-04-01 11:07:00,
2013-04-01 07:17:00,40.3,40.3,29.93,NE,34,0.0,1.0,100,0.00,,,0.00,Wunderground v.1.15,2013-04-01 11:17:00,
2013-04-01 07:22:00,40.4,40.4,29.93,NE,34,0.0,1.0,100,0.00,,,0.00,Wunderground v.1.15,2013-04-01 11:22:00,
2013-04-01 07:27:00,40.5,40.5,29.94,NE,34,0.0,1.0,100,0.00,,,0.00,Wunderground v.1.15,2013-04-01 11:27:00,
2013-04-01 07:32:00,40.6,40.6,29.94,NE,34,0.0,1.0,100,0.00,,,0.00,Wunderground v.1.15,2013-04-01 11:32:00,
2013-04-01 07:42:00,40.7,40.7,29.95,NE,34,0.0,1.0,100,0.00,,,0.00,Wunderground v.1.15,2013-04-01 11:42:00,
2013-04-01 07:47:00,40.6,40.6,29.95,NE,34,0.0,1.0,100,0.00,,,0.00,Wunderground v.1.15,2013-04-01 11:47:00,
2013-04-01 07:57:00,40.8,40.8,29.96,NE,34,0.0,1.0,100,0.00,,,0.00,Wunderground v.1.15,2013-04-01 11:57:00,
2013-04-01 08:02:00,40.8,40.8,29.96,NE,34,0.0,1.0,100,0.00,,,0.00,Wunderground v.1.15,2013-04-01 12:02:00,
2013-04-01 08:07:00,40.7,40.7,29.96,WSW,249,0.0,2.0,100,0.00,,,0.00,Wunderground v.1.15,2013-04-01 12:07:00,
2013-04-01 08:12:00,40.7,40.7,29.96,WSW,250,1.0,2.0,100,0.00,,,0.00,Wunderground v.1.15,2013-04-01 12:12:00,
2013-04-01 08:17:00,40.8,40.8,29.97,WSW,256,2.0,2.0,100,0.00,,,0.00,Wunderground v.1.15,2013-04-01 12:17:00,
2013-04-01 08:22:00,40.9,40.9,29.97,WSW,255,2.0,2.0,100,0.00,,,0.00,Wunderground v.1.15,2013-04-01 12:22:00,
2013-04-01 08:27:00,41.0,41.0,29.97,West,269,2.0,2.0,100,0.00,,,0.01,Wunderground v.1.15,2013-04-01 12:27:00,
2013-04-01 08:37:00,41.3,41.3,29.98,WSW,250,1.0,1.0,100,0.00,,,0.01,Wunderground v.1.15,2013-04-01 12:37:00,
2013-04-01 08:42:00,41.5,41.5,29.98,WSW,250,1.0,1.0,100,0.00,,,0.01,Wunderground v.1.15,2013-04-01 12:42:00,
2013-04-01 08:47:00,41.8,41.8,29.98,WSW,250,0.0,1.0,100,0.00,,,0.01,Wunderground v.1.15,2013-04-01 12:47:00,
2013-04-01 08:52:00,42.2,42.2,29.98,WSW,250,0.0,1.0,100,0.00,,,0.01,Wunderground v.1.15,2013-04-01 12:52:00,
2013-04-01 09:02:00,43.0,43.0,29.99,WSW,250,0.0,1.0,100,0.00,,,0.01,Wunderground v.1.15,2013-04-01 13:02:00,
2013-04-01 09:07:00,43.5,43.5,29.99,SE,141,0.0,1.0,100,0.00,,,0.01,Wunderground v.1.15,2013-04-01 13:07:00,
2013-04-01 09:12:00,44.0,44.0,29.99,SE,141,0.0,1.0,100,0.00,,,0.01,Wunderground v.1.15,2013-04-01 13:12:00,
2013-04-01 09:17:00,44.4,44.4,29.99,West,263,0.0,1.0,100,0.00,,,0.01,Wunderground v.1.15,2013-04-01 13:17:00,
2013-04-01 09:22:00,45.1,45.1,29.99,West,263,0.0,1.0,100,0.00,,,0.01,Wunderground v.1.15,2013-04-01 13:22:00,
2013-04-01 09:27:00,45.3,45.3,29.99,WSW,245,0.0,2.0,100,0.00,,,0.01,Wunderground v.1.15,2013-04-01 13:27:00,
2013-04-01 09:32:00,45.3,45.3,29.99,WSW,255,0.0,2.0,100,0.00,,,0.01,Wunderground v.1.15,2013-04-01 13:32:00,
2013-04-01 09:37:00,45.5,45.5,30.00,WSW,248,1.0,1.0,100,0.00,,,0.01,Wunderground v.1.15,2013-04-01 13:37:00,
2013-04-01 09:42:00,45.7,45.7,30.00,West,259,1.0,1.0,100,0.00,,,0.01,Wunderground v.1.15,2013-04-01 13:42:00,
2013-04-01 09:52:00,47.2,47.2,30.00,WNW,290,0.0,1.0,100,0.00,,,0.01,Wunderground v.1.15,2013-04-01 13:52:00,
2013-04-01 09:57:00,47.5,47.5,30.00,WSW,248,1.0,2.0,100,0.00,,,0.01,Wunderground v.1.15,2013-04-01 13:57:00,
2013-04-01 10:07:00,48.5,48.5,30.00,ENE,62,1.0,1.0,100,0.00,,,0.01,Wunderground v.1.15,2013-04-01 14:07:00,
2013-04-01 10:12:00,49.1,49.1,30.00,ENE,63,1.0,1.0,100,0.00,,,0.01,Wunderground v.1.15,2013-04-01 14:12:00,
2013-04-01 10:17:00,49.5,49.5,30.00,East,79,1.0,1.0,100,0.00,,,0.01,Wunderground v.1.15,2013-04-01 14:17:00,
2013-04-01 10:22:00,49.9,49.9,30.00,NE,53,1.0,1.0,100,0.00,,,0.01,Wunderground v.1.15,2013-04-01 14:22:00,
2013-04-01 10:32:00,50.9,50.9,30.00,West,263,1.0,3.0,100,0.00,,,0.01,Wunderground v.1.15,2013-04-01 14:32:00,
2013-04-01 10:37:00,50.9,50.9,30.00,WSW,245,1.0,3.0,100,0.00,,,0.01,Wunderground v.1.15,2013-04-01 14:37:00,
2013-04-01 10:42:00,51.4,51.4,30.00,SSE,160,1.0,3.0,100,0.00,,,0.01,Wunderground v.1.15,2013-04-01 14:42:00,
2013-04-01 10:47:00,52.2,52.2,30.00,SW,233,1.0,1.0,100,0.00,,,0.01,Wunderground v.1.15,2013-04-01 14:47:00,
2013-04-01 10:52:00,53.4,53.4,30.00,WNW,303,0.0,1.0,100,0.00,,,0.01,Wunderground v.1.15,2013-04-01 14:52:00,
2013-04-01 11:02:00,53.2,52.9,30.00,WSW,250,1.0,2.0,99,0.00,,,0.01,Wunderground v.1.15,2013-04-01 15:02:00,
2013-04-01 11:07:00,53.5,53.2,30.00,West,262,1.0,1.0,99,0.00,,,0.01,Wunderground v.1.15,2013-04-01 15:07:00,
2013-04-01 11:12:00,53.9,53.6,30.00,ENE,65,1.0,1.0,99,0.00,,,0.01,Wunderground v.1.15,2013-04-01 15:12:00,
2013-04-01 11:22:00,53.7,53.4,30.01,ESE,114,1.0,2.0,99,0.00,,,0.01,Wunderground v.1.15,2013-04-01 15:22:00,
2013-04-01 11:27:00,54.5,54.2,30.00,SE,131,1.0,1.0,99,0.00,,,0.01,Wunderground v.1.15,2013-04-01 15:27:00,
2013-04-01 11:32:00,54.9,54.6,30.01,SE,127,1.0,1.0,99,0.00,,,0.01,Wunderground v.1.15,2013-04-01 15:32:00,
2013-04-01 11:37:00,55.8,55.2,30.00,WSW,258,1.0,1.0,98,0.00,,,0.01,Wunderground v.1.15,2013-04-01 15:37:00,
2013-04-01 11:42:00,56.3,55.7,30.01,ENE,60,1.0,1.0,98,0.00,,,0.01,Wunderground v.1.15,2013-04-01 15:42:00,
2013-04-01 11:47:00,56.4,55.6,30.01,ENE,67,1.0,1.0,97,0.00,,,0.01,Wunderground v.1.15,2013-04-01 15:47:00,
2013-04-01 11:52:00,56.6,56.0,30.01,SSE,156,2.0,2.0,98,0.00,,,0.01,Wunderground v.1.15,2013-04-01 15:52:00,
2013-04-01 12:02:00,57.9,56.2,30.01,NE,45,2.0,2.0,94,0.00,,,0.01,Wunderground v.1.15,2013-04-01 16:02:00,
2013-04-01 12:07:00,58.6,55.1,30.01,SE,143,2.0,2.0,88,0.00,,,0.01,Wunderground v.1.15,2013-04-01 16:07:00,
2013-04-01 12:12:00,59.5,54.7,30.01,East,96,2.0,2.0,84,0.00,,,0.01,Wunderground v.1.15,2013-04-01 16:12:00,
2013-04-01 12:22:00,61.4,53.8,30.00,SSE,165,2.0,2.0,76,0.00,,,0.01,Wunderground v.1.15,2013-04-01 16:22:00,
2013-04-01 12:37:00,61.3,51.8,30.00,NNE,17,3.0,3.0,71,0.00,,,0.01,Wunderground v.1.15,2013-04-01 16:37:00,
2013-04-01 12:42:00,61.4,52.3,30.00,ENE,64,4.0,5.0,72,0.00,,,0.01,Wunderground v.1.15,2013-04-01 16:42:00,
2013-04-01 12:47:00,61.5,50.8,30.00,NNW,338,4.0,4.0,68,0.00,,,0.01,Wunderground v.1.15,2013-04-01 16:47:00,
2013-04-01 12:52:00,61.6,51.7,30.00,NNW,341,4.0,6.0,70,0.00,,,0.01,Wunderground v.1.15,2013-04-01 16:52:00,
2013-04-01 13:02:00,62.4,51.3,30.00,North,5,6.0,6.0,67,0.00,,,0.01,Wunderground v.1.15,2013-04-01 17:02:00,
2013-04-01 13:07:00,62.6,51.1,30.00,NNW,334,6.0,6.0,66,0.00,,,0.01,Wunderground v.1.15,2013-04-01 17:07:00,
2013-04-01 13:12:00,62.7,51.2,30.00,NNE,19,7.0,11.0,66,0.00,,,0.01,Wunderground v.1.15,2013-04-01 17:12:00,
2013-04-01 13:17:00,62.6,50.2,30.00,NNE,26,9.0,9.0,64,0.00,,,0.01,Wunderground v.1.15,2013-04-01 17:17:00,
2013-04-01 13:22:00,62.6,50.2,30.00,NNE,16,10.0,10.0,64,0.00,,,0.01,Wunderground v.1.15,2013-04-01 17:22:00,
2013-04-01 13:27:00,62.6,50.7,30.00,NE,43,9.0,9.0,65,0.00,,,0.01,Wunderground v.1.15,2013-04-01 17:27:00,
2013-04-01 13:37:00,62.8,50.4,30.00,ENE,57,6.0,8.0,64,0.00,,,0.01,Wunderground v.1.15,2013-04-01 17:37:00,
2013-04-01 13:42:00,62.8,50.4,30.00,NNE,25,8.0,8.0,64,0.00,,,0.01,Wunderground v.1.15,2013-04-01 17:42:00,
2013-04-01 13:47:00,63.1,51.1,29.99,ENE,60,7.0,7.0,65,0.00,,,0.01,Wunderground v.1.15,2013-04-01 17:47:00,
2013-04-01 13:52:00,63.7,51.7,29.99,NNE,30,6.0,7.0,65,0.00,,,0.01,Wunderground v.1.15,2013-04-01 17:52:00,
2013-04-01 13:57:00,63.9,50.2,29.99,ENE,60,6.0,14.0,61,0.00,,,0.01,Wunderground v.1.15,2013-04-01 17:57:00,
2013-04-01 14:07:00,64.4,50.2,29.99,NE,40,9.0,9.0,60,0.00,,,0.01,Wunderground v.1.15,2013-04-01 18:07:00,
2013-04-01 14:17:00,64.5,50.3,29.99,NNE,26,9.0,9.0,60,0.00,,,0.01,Wunderground v.1.15,2013-04-01 18:17:00,
2013-04-01 14:22:00,64.6,49.9,29.98,NE,38,9.0,11.0,59,0.00,,,0.01,Wunderground v.1.15,2013-04-01 18:22:00,
2013-04-01 14:27:00,64.7,50.0,29.98,NNE,32,9.0,9.0,59,0.00,,,0.01,Wunderground v.1.15,2013-04-01 18:27:00,
2013-04-01 14:32:00,65.0,51.7,29.99,North,360,9.0,9.0,62,0.00,,,0.01,Wunderground v.1.15,2013-04-01 18:32:00,
2013-04-01 14:42:00,64.3,49.2,29.98,NNE,32,9.0,9.0,58,0.00,,,0.01,Wunderground v.1.15,2013-04-01 18:42:00,
2013-04-01 14:47:00,64.1,49.5,29.98,NNE,15,8.0,11.0,59,0.00,,,0.01,Wunderground v.1.15,2013-04-01 18:47:00,
2013-04-01 14:52:00,64.5,49.8,29.98,NE,34,8.0,11.0,59,0.00,,,0.01,Wunderground v.1.15,2013-04-01 18:52:00,
2013-04-01 14:57:00,64.6,49.0,29.98,NNE,12,6.0,12.0,57,0.00,,,0.01,Wunderground v.1.15,2013-04-01 18:57:00,
2013-04-01 15:02:00,64.6,49.9,29.98,NNE,29,7.0,12.0,59,0.00,,,0.01,Wunderground v.1.15,2013-04-01 19:02:00,
2013-04-01 15:12:00,64.7,49.6,29.98,NNE,19,10.0,13.0,58,0.00,,,0.01,Wunderground v.1.15,2013-04-01 19:12:00,
2013-04-01 15:17:00,64.7,49.6,29.98,NE,54,10.0,10.0,58,0.00,,,0.01,Wunderground v.1.15,2013-04-01 19:17:00,
2013-04-01 15:27:00,64.6,49.0,29.98,NNE,12,9.0,9.0,57,0.00,,,0.01,Wunderground v.1.15,2013-04-01 19:27:00,
2013-04-01 15:32:00,64.6,48.5,29.98,NNW,341,9.0,9.0,56,0.00,,,0.01,Wunderground v.1.15,2013-04-01 19:32:00,
2013-04-01 15:37:00,65.2,49.6,29.98,North,359,8.0,8.0,57,0.00,,,0.01,Wunderground v.1.15,2013-04-01 19:37:00,
2013-04-01 15:42:00,64.7,49.6,29.98,NNE,20,9.0,11.0,58,0.00,,,0.01,Wunderground v.1.15,2013-04-01 19:42:00,
2013-04-01 15:52:00,64.7,50.0,29.98,NE,49,10.0,11.0,59,0.00,,,0.01,Wunderground v.1.15,2013-04-01 19:52:00,
2013-04-01 16:02:00,65.1,49.5,29.98,NE,37,8.0,10.0,57,0.00,,,0.01,Wunderground v.1.15,2013-04-01 20:02:00,
2013-04-01 16:07:00,65.0,48.9,29.97,NE,54,8.0,9.0,56,0.00,,,0.01,Wunderground v.1.15,2013-04-01 20:07:00,
2013-04-01 16:12:00,65.2,49.6,29.98,NE,45,8.0,11.0,57,0.00,,,0.01,Wunderground v.1.15,2013-04-01 20:12:00,
2013-04-01 16:17:00,65.1,49.5,29.98,NNE,21,8.0,8.0,57,0.00,,,0.01,Wunderground v.1.15,2013-04-01 20:17:00,
2013-04-01 16:27:00,65.4,48.3,29.97,ENE,72,8.0,11.0,54,0.00,,,0.01,Wunderground v.1.15,2013-04-01 20:27:00,
2013-04-01 16:37:00,65.0,47.9,29.97,NE,44,8.0,8.0,54,0.00,,,0.01,Wunderground v.1.15,2013-04-01 20:37:00,
2013-04-01 16:42:00,64.5,47.0,29.98,NNE,32,8.0,14.0,53,0.00,,,0.01,Wunderground v.1.15,2013-04-01 20:42:00,
2013-04-01 16:47:00,64.1,47.1,29.98,NNE,19,11.0,11.0,54,0.00,,,0.01,Wunderground v.1.15,2013-04-01 20:47:00,
2013-04-01 16:52:00,64.1,46.1,29.98,NE,36,9.0,11.0,52,0.00,,,0.01,Wunderground v.1.15,2013-04-01 20:52:00,
2013-04-01 17:02:00,64.4,45.9,29.98,ENE,57,9.0,10.0,51,0.00,,,0.01,Wunderground v.1.15,2013-04-01 21:02:00,
2013-04-01 17:07:00,64.3,46.3,29.98,NNE,30,8.0,8.0,52,0.00,,,0.01,Wunderground v.1.15,2013-04-01 21:07:00,
2013-04-01 17:12:00,64.3,45.3,29.98,ENE,60,9.0,13.0,50,0.00,,,0.01,Wunderground v.1.15,2013-04-01 21:12:00,
2013-04-01 17:17:00,64.4,44.8,29.98,NE,56,10.0,10.0,49,0.00,,,0.01,Wunderground v.1.15,2013-04-01 21:17:00,
2013-04-01 17:22:00,64.4,44.3,29.98,NE,47,11.0,13.0,48,0.00,,,0.01,Wunderground v.1.15,2013-04-01 21:22:00,
2013-04-01 17:32:00,64.1,45.1,29.98,ENE,60,10.0,11.0,50,0.00,,,0.01,Wunderground v.1.15,2013-04-01 21:32:00,
2013-04-01 17:37:00,64.0,44.4,29.98,NNE,26,9.0,9.0,49,0.00,,,0.01,Wunderground v.1.15,2013-04-01 21:37:00,
2013-04-01 17:47:00,64.7,45.6,29.98,North,357,7.0,11.0,50,0.00,,,0.01,Wunderground v.1.15,2013-04-01 21:47:00,
2013-04-01 17:52:00,64.6,44.5,29.98,North,11,8.0,11.0,48,0.00,,,0.01,Wunderground v.1.15,2013-04-01 21:52:00,
2013-04-01 17:57:00,64.5,44.4,29.98,NE,50,10.0,12.0,48,0.00,,,0.01,Wunderground v.1.15,2013-04-01 21:57:00,
2013-04-01 18:07:00,64.3,42.5,29.98,NE,51,10.0,11.0,45,0.00,,,0.01,Wunderground v.1.15,2013-04-01 22:07:00,
2013-04-01 18:12:00,64.2,44.1,29.98,NNE,32,10.0,11.0,48,0.00,,,0.01,Wunderground v.1.15,2013-04-01 22:12:00,
2013-04-01 18:17:00,64.4,44.3,29.98,NNE,18,9.0,12.0,48,0.00,,,0.01,Wunderground v.1.15,2013-04-01 22:17:00,
2013-04-01 18:22:00,64.3,42.5,29.98,NNE,13,8.0,12.0,45,0.00,,,0.01,Wunderground v.1.15,2013-04-01 22:22:00,
2013-04-01 18:27:00,64.4,43.2,29.98,NE,37,8.0,14.0,46,0.00,,,0.01,Wunderground v.1.15,2013-04-01 22:27:00,
2013-04-01 18:32:00,64.2,43.0,29.98,NE,50,8.0,14.0,46,0.00,,,0.01,Wunderground v.1.15,2013-04-01 22:32:00,
2013-04-01 18:42:00,63.7,43.1,29.98,NE,47,8.0,10.0,47,0.00,,,0.01,Wunderground v.1.15,2013-04-01 22:42:00,
2013-04-01 18:47:00,63.5,42.9,29.98,NNE,29,6.0,8.0,47,0.00,,,0.01,Wunderground v.1.15,2013-04-01 22:47:00,
2013-04-01 18:52:00,63.2,42.6,29.98,NE,37,6.0,9.0,47,0.00,,,0.01,Wunderground v.1.15,2013-04-01 22:52:00,
2013-04-01 18:57:00,63.1,43.1,29.98,NE,54,7.0,7.0,48,0.00,,,0.01,Wunderground v.1.15,2013-04-01 22:57:00,
2013-04-01 19:02:00,63.2,43.2,29.98,NE,40,6.0,7.0,48,0.00,,,0.01,Wunderground v.1.15,2013-04-01 23:02:00,
2013-04-01 19:12:00,63.1,42.5,29.99,NNE,30,6.0,7.0,47,0.00,,,0.01,Wunderground v.1.15,2013-04-01 23:12:00,
2013-04-01 19:17:00,63.0,41.3,29.99,NNE,26,7.0,7.0,45,0.00,,,0.01,Wunderground v.1.15,2013-04-01 23:17:00,
2013-04-01 19:27:00,62.6,42.1,29.99,NE,37,8.0,8.0,47,0.00,,,0.01,Wunderground v.1.15,2013-04-01 23:27:00,
2013-04-01 19:32:00,62.3,42.3,29.99,NNE,22,8.0,8.0,48,0.00,,,0.01,Wunderground v.1.15,2013-04-01 23:32:00,
2013-04-01 19:37:00,62.1,41.6,29.99,NE,40,8.0,8.0,47,0.00,,,0.01,Wunderground v.1.15,2013-04-01 23:37:00,
2013-04-01 19:47:00,61.6,41.2,30.00,NE,41,7.0,7.0,47,0.00,,,0.01,Wunderground v.1.15,2013-04-01 23:47:00,
2013-04-01 19:52:00,61.2,41.3,30.00,NE,45,7.0,7.0,48,0.00,,,0.01,Wunderground v.1.15,2013-04-01 23:52:00,
2013-04-01 19:57:00,60.9,41.1,30.00,NE,43,6.0,8.0,48,0.00,,,0.01,Wunderground v.1.15,2013-04-01 23:57:00,
2013-04-01 20:02:00,60.6,40.8,30.00,ENE,60,6.0,8.0,48,0.00,,,0.01,Wunderground v.1.15,2013-04-02 00:02:00,
2013-04-01 20:07:00,60.4,40.6,30.00,NE,56,6.0,6.0,48,0.00,,,0.01,Wunderground v.1.15,2013-04-02 00:07:00,
2013-04-01 20:12:00,60.2,39.9,30.00,NE,49,6.0,6.0,47,0.00,,,0.01,Wunderground v.1.15,2013-04-02 00:12:00,
2013-04-01 20:17:00,59.8,40.6,30.00,NE,45,6.0,6.0,49,0.00,,,0.01,Wunderground v.1.15,2013-04-02 00:17:00,
2013-04-01 20:22:00,59.5,40.3,30.00,NE,49,5.0,6.0,49,0.00,,,0.01,Wunderground v.1.15,2013-04-02 00:22:00,
2013-04-01 20:27:00,59.3,39.6,30.01,NE,49,5.0,6.0,48,0.00,,,0.01,Wunderground v.1.15,2013-04-02 00:27:00,
2013-04-01 20:32:00,58.9,40.3,30.01,NE,49,5.0,6.0,50,0.00,,,0.01,Wunderground v.1.15,2013-04-02 00:32:00,
2013-04-01 20:37:00,58.7,39.6,30.01,ENE,60,5.0,5.0,49,0.00,,,0.01,Wunderground v.1.15,2013-04-02 00:37:00,
2013-04-01 20:42:00,58.5,38.9,30.01,NE,53,6.0,6.0,48,0.00,,,0.01,Wunderground v.1.15,2013-04-02 00:42:00,
2013-04-01 20:52:00,58.0,40.0,30.02,NE,51,5.0,6.0,51,0.00,,,0.01,Wunderground v.1.15,2013-04-02 00:52:00,
2013-04-01 20:57:00,57.8,39.8,30.02,NE,44,5.0,5.0,51,0.00,,,0.01,Wunderground v.1.15,2013-04-02 00:57:00,
2013-04-01 21:02:00,57.5,39.0,30.02,NE,49,5.0,5.0,50,0.00,,,0.01,Wunderground v.1.15,2013-04-02 01:02:00,
2013-04-01 21:07:00,57.5,39.5,30.02,NE,47,5.0,6.0,51,0.00,,,0.01,Wunderground v.1.15,2013-04-02 01:07:00,
2013-04-01 21:12:00,57.3,39.3,30.03,NE,53,6.0,6.0,51,0.00,,,0.01,Wunderground v.1.15,2013-04-02 01:12:00,
2013-04-01 21:17:00,57.1,39.1,30.03,NE,49,5.0,5.0,51,0.00,,,0.01,Wunderground v.1.15,2013-04-02 01:17:00,
2013-04-01 21:27:00,56.8,38.9,30.03,NNE,30,4.0,7.0,51,0.00,,,0.01,Wunderground v.1.15,2013-04-02 01:27:00,
2013-04-01 21:32:00,56.8,38.9,30.03,NE,49,5.0,7.0,51,0.00,,,0.01,Wunderground v.1.15,2013-04-02 01:32:00,
2013-04-01 21:37:00,56.7,39.3,30.04,ENE,57,6.0,6.0,52,0.00,,,0.01,Wunderground v.1.15,2013-04-02 01:37:00,
2013-04-01 21:42:00,56.6,39.2,30.04,ENE,60,5.0,6.0,52,0.00,,,0.01,Wunderground v.1.15,2013-04-02 01:42:00,
2013-04-01 21:47:00,56.4,39.0,30.04,NE,49,5.0,5.0,52,0.00,,,0.01,Wunderground v.1.15,2013-04-02 01:47:00,
2013-04-01 21:57:00,55.9,39.5,30.04,NE,53,4.0,5.0,54,0.00,,,0.01,Wunderground v.1.15,2013-04-02 01:57:00,
2013-04-01 22:02:00,55.5,39.1,30.04,NE,44,4.0,5.0,54,0.00,,,0.01,Wunderground v.1.15,2013-04-02 02:02:00,
2013-04-01 22:07:00,55.3,39.4,30.05,ENE,57,4.0,4.0,55,0.00,,,0.01,Wunderground v.1.15,2013-04-02 02:07:00,
2013-04-01 22:12:00,55.2,39.3,30.05,ENE,60,4.0,4.0,55,0.00,,,0.01,Wunderground v.1.15,2013-04-02 02:12:00,
2013-04-01 22:17:00,55.2,39.3,30.06,ENE,60,4.0,4.0,55,0.00,,,0.01,Wunderground v.1.15,2013-04-02 02:17:00,
2013-04-01 22:22:00,54.9,39.5,30.06,ENE,57,3.0,4.0,56,0.00,,,0.01,Wunderground v.1.15,2013-04-02 02:22:00,
2013-04-01 22:32:00,54.3,39.8,30.06,NE,53,2.0,3.0,58,0.00,,,0.01,Wunderground v.1.15,2013-04-02 02:32:00,
2013-04-01 22:37:00,54.0,39.5,30.06,NE,51,3.0,3.0,58,0.00,,,0.01,Wunderground v.1.15,2013-04-02 02:37:00,
2013-04-01 22:42:00,53.7,39.3,30.06,NE,49,3.0,3.0,58,0.00,,,0.01,Wunderground v.1.15,2013-04-02 02:42:00,
2013-04-01 22:47:00,53.2,39.2,30.06,NE,41,3.0,3.0,59,0.00,,,0.01,Wunderground v.1.15,2013-04-02 02:47:00,
2013-04-01 22:52:00,52.6,39.5,30.06,NE,45,3.0,3.0,61,0.00,,,0.01,Wunderground v.1.15,2013-04-02 02:52:00,
2013-04-01 23:02:00,51.6,40.6,30.06,NE,47,3.0,3.0,66,0.00,,,0.01,Wunderground v.1.15,2013-04-02 03:02:00,
2013-04-01 23:07:00,51.3,39.9,30.06,NE,49,3.0,3.0,65,0.00,,,0.01,Wunderground v.1.15,2013-04-02 03:07:00,
2013-04-01 23:12:00,51.2,39.8,30.06,NE,49,3.0,4.0,65,0.00,,,0.01,Wunderground v.1.15,2013-04-02 03:12:00,
2013-04-01 23:17:00,51.5,39.7,30.06,NE,46,4.0,4.0,64,0.00,,,0.01,Wunderground v.1.15,2013-04-02 03:17:00,
2013-04-01 23:22:00,51.7,39.5,30.07,NE,43,4.0,6.0,63,0.00,,,0.01,Wunderground v.1.15,2013-04-02 03:22:00,
2013-04-01 23:27:00,51.9,39.7,30.07,NE,49,5.0,5.0,63,0.00,,,0.01,Wunderground v.1.15,2013-04-02 03:27:00,
2013-04-01 23:37:00,52.1,39.1,30.07,NE,49,5.0,6.0,61,0.00,,,0.01,Wunderground v.1.15,2013-04-02 03:37:00,
2013-04-01 23:42:00,52.0,39.4,30.07,NE,41,5.0,6.0,62,0.00,,,0.01,Wunderground v.1.15,2013-04-02 03:42:00,
2013-04-01 23:47:00,51.9,39.3,30.07,NE,37,5.0,5.0,62,0.00,,,0.01,Wunderground v.1.15,2013-04-02 03:47:00,
2013-04-01 23:52:00,51.6,39.4,30.07,NE,37,4.0,5.0,63,0.00,,,0.01,Wunderground v.1.15,2013-04-02 03:52:00,
2013-04-01 23:57:00,51.2,39.8,30.07,NE,40,3.0,3.0,65,0.00,,,0.01,Wunderground v.1.15,2013-04-02 03:57:00,